EHI
0 0 0 0 0 0 0 0 0 0 0 0 0 0 0 0 0 0 0 0 0 0 0 0 0 0 0 0 0 0 0 0 0 0 0 0 0 0 0 0 0 0 0 0
0 0 0 0 0 0 0 0 0 0 0 0 0 0 0 0 0 0 0 0 0 0 0 0 0 0 0 0 0 0 0 0 0 0 0 0 0 0 0 0 0 0 0 0
0 0 0 0 0 0 0 0 0 0 0 0 0 0 0 0 0 0 0 0 0 0 0 0 0 0 0 0 0 0 0 0 0 0 0 0 0 0 0 0 0 0 0 0
0 0 0 0 0 0 0 0 0 0 0 0 0 0 0 0 0 0 0 0 0 0 0 0 0 0 0 0 0 0 0 0 0 0 0 0 0 0 0 0 0 0 0 0
0 0 0 0 0 0 0 0 0 0 0 0 0 0 0 0 0 0 0 0 0 0 0 0 0 0 0 0 0 0 0 0 0 0 0 0 0 0 0 0 0 0 0 0
0 0 0 0 0 0 0 0 0 0 0 0 0 0 0 0 0 0 0 0 0 0 0 0 0 0 0 0 0 0 0 0 0 0 0 0 0 0 0 0 0 0 0 0
0 0 0 0 0 0 0 0 0 0 0 0 0 0 0 0 0 0 0 0 0 0 0 0 0 0 0 0 0 0 0 0 0 0 0 0 0 0 0 0 0 0 0 0
0 0 0 0 0 0 0 0 0 0 0 0 0 0 0 0 0 0 0 0 0 0 0 0 0 0 0 0 0 0 0 0 0 0 0 0 0 0 0 0 0 0 0 0
0 0 0 0 0 0 0 0 0 0 0 0 0 0 0 0 0 0 0 0 0 0 0 0 0 0 0 0 0 0 0 0 0 0 0 0 0 0 0 0 0 0 0 0
0 0 0 0 0 0 0 0 0 0 0 0 0 0 0 0 0 0 0 0 0 0 0 0 0 0 0 0 0 0 0 0 0 0 0 0 0 0 0 0 0 0 0 0
0 0 0 0 0 0 0 0 0 0 0 0 0 0 0 0 0 0 0 0 0 0 0 0 0 0 0 0 0 0 0 0 0 0 0 0 0 0 0 0 0 0 0 0
0 0 0 0 0 0 0 0 0 0 0 0 0 0 0 0 0 0 0 0 0 0 0 0 0 0 0 0 0 0 0 0 0 0 0 0 0 0 0 0 0 0 0 0
0 0 0 0 0 0 0 0 0 0 0 0 0 0 0 0 0 0 0 0 0 0 0 0 0 0 0 0 0 0 0 0 0 0 0 0 0 0 0 0 0 0 0 0
0 0 0 0 0 0 0 0 0 0 0 0 0 0 0 0 0 0 0 0 0 0 0 0 0 0 0 0 0 0 0 0 0 0 0 0 0 0 0 0 0 0 0 0
0 0 0 0 0 0 0 0 0 0 0 0 0 0 0 0 0 0 0 0 0 0 0 0 0 0 0 0 0 0 0 0 0 0 0 0 0 0 0 0 0 0 0 0
0 0 0 0 0 0 0 0 0 0 0 0 0 0 0 0 0 0 0 0 0 0 0 0 0 0 0 0 0 0 0 0 0 0 0 0 0 0 0 0 0 0 0 0
0 0 0 0 0 0 0 0 0 0 0 0 0 0 0 0 0 0 0 0 0 0 0 0 0 0 0 0 0 0 0 0 0 0 0 0 0 0 0 0 0 0 0 0
0 0 0 0 0 0 0 0 0 0 0 0 0 0 0 0 0 0 0 0 0 0 0 0 0 0 0 0 0 0 0 0 0 0 0 0 0 0 0 0 0 0 0 0
0 0 0 0 0 0 0 0 0 0 0 0 0 0 0 0 0 0 0 0 0 0 0 0 0 0 0 0 0 0 0 0 0 0 0 0 0 0 0 0 0 0 0 0
0 0 0 0 0 0 0 0 0 0 0 0 0 0 0 0 0 0 0 0 0 0 0 0 0 0 0 0 0 0 0 0 0 0 0 0 0 0 0 0 0 0 0 0
0 0 0 0 0 0 0 0 0 0 0 0 0 0 0 0 0 0 0 0 0 0 0 0 0 0 0 0 0 0 0 0 0 0 0 0 0 0 0 0 0 0 0 0
0 0 0 0 0 0 0 0 0 0 0 0 0 0 0 0 0 0 0 0 0 0 0 0 0 0 0 0 0 0 0 0 0 0 0 0 0 0 0 0 0 0 0 0
0 0 0 0 0 0 0 0 0 0 0 0 0 0 0 0 0 0 0 0 0 0 0 0 0 0 0 0 0 0 0 0 0 0 0 0 0 0 0 0 0 0 0 0
0 0 0 0 0 0 0 0 0 0 0 0 0 0 0 0 0 0 0 0 0 0 0 0 0 0 0 0 0 0 0 0 0 0 0 0 0 0 0 0 0 0 0 0
0 0 0 0 0 0 0 0 0 0 0 0 0 0 0 0 0 0 0 0 0 0 0 0 0 0 0 0 0 0 0 0 0 0 0 0 0 0 0 0 0 0 0 0
0 0 0 0 0 0 0 0 0 0 0 0 0 0 0 0 0 0 0 0 0 0 0 0 0 0 0 0 0 0 0 0 0 0 0 0 0 0 0 0 0 0 0 0
0 0 0 0 0 0 0 0 0 0 0 0 0 0 0 0 0 0 0 0 0 0 0 0 0 0 0 0 0 0 0 0 0 0 0 0 0 0 0 0 0 0 0 0
Wind_Speed
15 13 9 13 14 12 14 15 16 19 20 23 18 14 12 10 9 9 8 8 8 7 7 7 7 6 6 5 5 5 5 5 5 5 4 4 5 5 5 6 7 8 9 9
12 12 12 18 20 19 19 18 21 22 25 21 17 11 10 10 9 8 8 8 8 8 7 7 7 6 6 6 6 5 5 6 5 4 4 4 5 5 5 6 7 8 9 9
10 6 6 16 16 17 13 12 12 18 20 14 11 10 10 9 7 7 8 8 8 8 7 7 7 6 6 6 6 5 5 5 5 4 4 5 5 4 5 6 6 8 9 9
6 3 15 12 4 8 12 15 14 14 12 9 9 10 8 6 5 6 7 7 8 8 7 7 6 6 6 6 6 5 5 5 5 5 5 4 4 4 5 5 6 7 8 9
5 8 13 10 6 6 8 10 10 11 10 8 6 5 5 4 4 5 6 7 7 7 7 7 7 7 6 6 6 5 5 5 5 4 4 4 4 5 5 4 5 6 6 7
7 7 10 8 4 2 1 8 6 5 6 5 2 3 6 5 5 6 7 6 6 6 6 7 7 6 6 6 5 5 6 6 5 4 4 5 5 5 4 4 4 5 5 6
12 11 12 7 3 2 4 9 3 4 5 4 5 7 7 6 6 6 6 7 6 6 6 7 7 6 6 5 5 6 6 6 5 4 4 5 4 4 3 3 3 4 5 5
7 10 13 5 5 7 9 4 3 4 5 6 7 7 7 7 7 7 7 7 6 6 7 7 6 6 7 6 6 6 5 5 5 4 4 4 4 4 3 3 3 4 4 4
11 11 6 5 7 6 4 5 6 6 6 6 7 7 7 7 7 7 7 7 6 6 8 8 6 6 7 7 6 6 5 5 5 4 4 4 3 4 3 3 3 3 4 4
7 10 8 6 6 5 5 6 7 6 6 6 7 7 8 8 7 7 7 7 6 7 8 8 7 7 7 7 6 5 6 5 4 4 4 4 3 3 3 3 4 3 4 4
9 9 6 7 7 7 7 6 6 6 6 7 8 8 8 7 8 7 7 7 6 7 8 9 8 8 7 6 5 6 6 5 4 4 3 4 4 3 4 4 5 5 4 4
10 8 7 7 5 6 7 7 8 8 8 7 7 8 8 8 7 7 7 7 7 8 8 9 8 9 7 6 5 6 5 5 4 3 3 3 3 4 4 4 5 6 6 6
10 7 7 7 6 5 6 7 7 7 7 7 7 7 7 7 7 7 7 7 8 9 9 9 9 9 8 6 6 6 6 5 4 4 3 3 3 3 2 2 1 4 6 7
7 5 7 6 6 6 6 6 5 5 6 6 6 6 6 7 7 7 8 8 8 8 9 9 9 9 8 6 6 6 6 6 6 4 4 3 3 3 2 2 1 0 2 6
6 5 7 6 5 5 5 4 5 6 6 6 5 6 6 7 9 9 8 8 8 8 9 9 9 9 7 6 6 6 6 5 4 4 4 3 3 3 2 3 2 2 1 2
5 4 4 4 5 5 5 5 5 7 6 6 6 7 7 8 9 9 8 7 8 10 10 9 10 9 7 7 7 6 5 8 7 4 4 3 3 3 3 3 3 3 3 3
3 4 4 4 6 6 6 6 6 7 6 7 8 8 8 8 9 9 9 8 8 10 10 10 10 9 7 7 6 5 5 6 8 5 4 3 3 3 3 3 3 3 3 4
4 5 4 5 5 6 6 6 6 6 7 8 8 8 8 9 10 10 10 9 9 10 9 9 9 9 7 7 6 5 5 5 4 4 4 3 3 3 3 3 4 4 3 3
3 4 4 4 4 5 5 6 7 7 7 7 8 8 9 9 10 10 10 10 10 11 9 7 12 10 8 8 8 5 5 5 4 4 3 5 4 3 3 3 3 4 4 4
4 4 4 4 4 4 5 6 6 6 7 7 8 9 9 10 9 10 10 10 9 8 9 10 9 7 7 7 8 5 4 5 5 4 3 3 3 3 3 3 3 4 4 4
5 4 4 4 5 5 5 5 6 7 8 8 8 9 10 10 9 9 9 10 9 9 10 13 8 6 6 7 8 5 4 5 4 4 4 4 3 3 3 3 3 3 4 4
4 4 5 5 5 6 6 5 6 7 8 8 9 9 9 10 10 9 9 9 9 12 9 6 6 8 8 9 5 4 5 5 4 4 4 4 3 3 3 3 3 4 4 4
4 4 4 5 5 6 7 6 6 7 8 8 9 9 9 9 8 8 9 7 7 12 9 6 8 11 11 6 4 4 5 5 4 4 4 4 4 4 4 4 4 4 4 5
4 4 5 5 4 5 7 7 7 7 7 8 8 8 8 8 7 6 7 12 13 13 7 8 12 11 9 3 3 3 4 4 4 3 3 3 3 3 4 4 4 4 5 6
4 4 4 4 4 5 6 7 7 7 7 6 8 8 7 6 7 8 7 8 11 11 6 7 9 8 4 2 3 3 3 3 3 3 3 4 4 4 4 4 5 5 5 6
4 4 4 4 4 4 5 5 5 6 6 7 7 7 6 6 7 7 6 7 8 9 6 3 3 3 1 1 1 2 2 2 2 3 4 4 5 5 5 5 6 5 5 6
4 3 3 4 4 4 4 4 5 6 6 7 8 7 7 7 7 6 7 6 5 4 3 3 2 1 0 0 1 1 2 2 2 3 4 4 4 5 5 6 5 5 5 7
Wind_Direction
251 258 253 252 255 241 232 235 245 260 266 274 280 281 283 284 288 290 294 301 301 299 298 300 304 307 303 296 295 294 290 278 273 271 264 267 259 242 236 219 215 204 197 198
261 251 250 262 260 252 249 246 248 260 268 270 276 279 281 281 281 285 293 300 302 303 301 303 302 303 304 301 295 293 284 271 269 276 276 268 268 258 233 215 213 205 198 196
263 268 273 259 248 242 237 228 233 249 259 273 279 278 277 277 279 283 292 300 303 301 292 292 295 295 297 294 294 290 280 273 264 266 273 276 275 271 239 220 210 206 198 194
262 259 248 249 228 227 242 248 241 247 261 266 267 275 275 267 274 288 297 300 301 301 298 295 293 296 295 298 296 290 289 283 274 267 270 275 274 273 258 232 207 203 202 196
230 246 266 277 252 213 223 256 244 246 258 268 278 301 293 280 283 279 287 290 291 291 291 295 299 301 304 305 302 301 298 295 288 273 268 274 273 270 262 242 214 204 203 198
226 239 252 255 250 221 193 271 258 230 249 265 278 287 277 292 296 295 299 300 301 305 306 305 302 305 305 303 301 303 300 296 290 283 265 261 263 262 258 232 221 210 208 203
233 244 259 253 234 138 209 253 255 218 236 242 225 232 259 284 289 289 293 297 304 308 307 300 301 307 306 304 298 296 299 297 290 280 272 261 260 258 255 234 227 215 204 200
211 232 251 217 164 198 228 248 243 236 237 241 246 258 269 276 283 293 299 303 307 308 305 304 304 304 300 295 293 297 297 297 295 290 286 284 264 261 250 225 220 211 197 193
204 225 240 188 204 227 227 238 244 241 246 247 258 265 271 274 280 286 290 293 296 298 301 303 303 297 291 292 298 301 299 297 295 295 288 283 265 254 242 218 208 211 191 190
241 254 252 246 244 250 241 240 249 250 254 251 253 261 268 273 279 283 287 289 291 296 298 300 301 296 288 292 299 301 296 291 291 285 286 285 278 252 232 217 210 208 197 190
246 260 273 259 244 248 252 250 253 255 250 248 253 262 264 271 275 278 285 287 289 288 289 291 297 297 295 291 295 295 288 285 289 283 276 279 277 263 242 232 216 208 205 193
240 233 227 244 241 242 246 253 255 260 264 259 253 260 266 268 271 275 281 286 289 290 289 291 294 295 295 289 283 284 286 286 284 286 282 281 280 287 266 239 223 218 215 204
243 249 243 253 256 252 256 262 262 258 256 264 265 260 264 270 274 276 280 285 287 289 290 292 292 293 294 289 284 278 277 278 277 277 275 273 271 266 278 318 249 206 202 198
249 257 262 260 263 270 265 265 265 267 265 265 267 271 274 278 282 282 282 282 284 288 290 291 291 291 293 290 284 281 279 273 270 267 263 262 258 258 240 212 221 244 191 183
257 246 250 266 273 276 273 272 277 279 280 280 279 280 282 283 284 285 285 286 287 288 289 290 290 292 296 289 282 278 276 273 269 266 262 256 251 250 229 203 203 194 160 154
268 265 258 261 272 282 286 281 277 279 281 283 286 285 284 283 283 285 286 286 286 287 288 288 286 288 290 287 284 279 271 272 270 265 258 254 244 238 220 200 194 185 183 169
260 269 274 281 282 284 281 278 277 280 284 286 286 289 290 290 290 290 290 286 281 279 281 280 282 285 283 278 275 274 273 274 269 263 251 244 236 231 219 203 192 187 188 176
242 249 253 260 273 283 288 289 288 288 287 288 292 292 291 289 288 290 291 292 289 284 279 275 278 282 278 273 271 267 265 265 257 249 246 237 235 223 210 201 192 183 169 152
289 279 281 281 280 280 283 289 292 292 294 295 294 290 287 285 285 287 290 289 287 287 286 281 285 285 277 270 269 259 255 256 253 249 240 235 233 216 207 199 190 176 162 154
314 306 300 298 295 292 292 295 297 296 295 295 293 292 290 289 288 289 288 281 274 273 281 284 283 278 273 268 268 257 248 244 240 235 231 226 214 208 203 188 176 171 164 157
315 314 312 307 305 303 298 298 298 297 298 296 293 291 291 291 290 288 286 285 283 279 280 283 280 275 271 266 265 251 240 236 231 223 220 217 208 198 187 177 173 166 159 152
307 306 305 306 308 307 306 303 298 297 299 298 294 291 292 294 294 289 276 271 281 289 289 279 275 273 272 271 254 239 234 227 222 213 208 207 203 191 180 172 166 154 146 144
298 298 299 301 302 302 304 304 301 300 298 298 296 295 293 290 289 287 290 285 285 290 289 277 278 279 277 267 242 226 220 217 211 205 201 199 194 181 168 160 156 147 143 142
301 302 302 303 306 307 309 310 308 304 300 298 296 296 296 296 292 282 280 293 299 298 290 282 283 280 276 257 230 214 207 203 198 194 192 184 170 160 153 150 146 140 139 141
304 303 307 313 314 306 303 309 311 309 309 307 305 302 298 289 289 295 296 296 301 304 297 289 286 282 271 245 220 205 195 189 181 176 172 162 154 149 147 145 140 137 138 139
305 304 299 294 292 296 303 308 309 310 314 313 313 312 310 306 300 298 301 305 306 310 312 309 304 293 262 227 204 186 173 166 161 154 147 144 141 140 137 132 131 134 136 137
311 309 310 311 310 308 307 307 307 309 311 311 311 313 315 315 314 314 315 317 320 325 331 334 336 342 350 163 152 141 133 130 132 132 131 130 131 132 132 133 133 133 137 139